Weather History for La Grange, GA

Change the Weather History Date:

Monday, September 16, 2013

  Actual Average Record
Temperature  
Mean Temperature 78 °F -  
Max Temperature 90 °F 84 °F 96 °F (1980)
Min Temperature 64 °F 61 °F 46 °F (2001)
Cooling Degree Days 12    
Growing Degree Days 28 (Base 50)    
Moisture  
Dew Point 66 °F    
Average Humidity 75    
Maximum Humidity 99    
Minimum Humidity 39    
Precipitation  
Precipitation 0.00 in - - ()
Sea Level Pressure  
Sea Level Pressure 30.11 in    
Wind  
Wind Speed 2 mph (North)    
Max Wind Speed 8 mph    
Max Gust Speed -    
Visibility 10 miles    
Events      
Averages and records for this station are not official NWS values.
T = Trace of Precipitation, MM = Missing Value Source: NWS Daily Summary

Daily Weather History Graph

Daily Weather History Graph

Search for Another Location

Airport:

Trip Planner

Search our weather history database for the weather conditions in past years. The results will help you decide how hot, cold, wet, or windy it might be!

Date:

Astronomy

Sep. 16, 2013 Rise Set
Actual Time 7:24 AM EDT 7:44 PM EDT
Civil Twilight 6:59 AM EDT 8:09 PM EDT
Nautical Twilight 6:30 AM EDT 8:38 PM EDT
Astronomical Twilight 6:01 AM EDT 9:07 PM EDT
Moon 5:47 PM EDT (9/16) 4:17 AM EDT (9/16)
Length of Visible Light 13h 09m
Length of Day
12h 20m
Waxing Gibbous, 90% of the Moon is Illuminated
Sep 16
Waxing Gibbous
Sep 19
Full
Sep 26
Last Quarter
Oct 4
New
Oct 11
First Quarter

Hourly Weather History & Observations

Time (EDT) Temp. Heat Index Dew Point Humidity Pressure Visibility Wind Dir Wind Speed Gust Speed Precip Events Conditions
12:15 AM 69.1 °F - 68.9 °F 99% 30.12 in - Calm Calm - N/A   Unknown
12:35 AM 69.1 °F - 68.2 °F 97% 30.12 in - Calm Calm - N/A   Unknown
12:55 AM 69.1 °F - 68.0 °F 96% 30.12 in - Calm Calm - N/A   Unknown
1:15 AM 69.1 °F - 67.6 °F 95% 30.12 in - Calm Calm - N/A   Unknown
1:35 AM 68.9 °F - 68.0 °F 97% 30.12 in - Calm Calm - N/A   Unknown
1:55 AM 68.4 °F - 67.3 °F 96% 30.12 in - Calm Calm - N/A   Unknown
2:15 AM 67.8 °F - 67.3 °F 98% 30.12 in - Calm Calm - N/A   Unknown
2:35 AM 68.4 °F - 67.5 °F 97% 30.12 in - Calm Calm - N/A   Unknown
2:55 AM 68.4 °F - 67.5 °F 97% 30.12 in - Calm Calm - N/A   Unknown
3:15 AM 68.4 °F - 67.5 °F 97% 30.11 in - Calm Calm - N/A   Unknown
3:35 AM 68.2 °F - 67.5 °F 98% 30.11 in - Calm Calm - N/A   Unknown
3:55 AM 68.0 °F - 67.3 °F 98% 30.10 in - Calm Calm - N/A   Unknown
4:15 AM 68.0 °F - 67.3 °F 98% 30.10 in - Calm Calm - N/A   Unknown
4:35 AM 68.0 °F - 67.1 °F 97% 30.10 in - Calm Calm - N/A   Unknown
4:55 AM 67.1 °F - 66.6 °F 98% 30.09 in - Calm Calm - N/A   Unknown
5:15 AM 65.8 °F - 65.7 °F 99% 30.11 in - Calm Calm - N/A   Unknown
5:35 AM 67.3 °F - 66.9 °F 99% 30.11 in - Calm Calm - N/A   Unknown
5:55 AM 68.0 °F - 67.1 °F 97% 30.11 in - Calm Calm - N/A   Unknown
6:15 AM 68.5 °F - 67.6 °F 97% 30.11 in - Calm Calm - N/A   Unknown
6:35 AM 68.9 °F - 67.8 °F 96% 30.11 in - Calm Calm - N/A   Unknown
6:55 AM 68.7 °F - 67.8 °F 97% 30.11 in - Calm Calm - N/A   Unknown
7:15 AM 68.5 °F - 67.6 °F 97% 30.11 in - Calm Calm - N/A   Unknown
7:35 AM 67.3 °F - 66.9 °F 99% 30.12 in - Calm Calm - N/A   Unknown
7:55 AM 68.0 °F - 67.5 °F 98% 30.13 in - Calm Calm - N/A   Unknown
8:15 AM 71.1 °F - 69.8 °F 96% 30.13 in - Calm Calm - N/A   Unknown
8:35 AM 72.5 °F - 70.3 °F 93% 30.13 in - Calm Calm - N/A   Unknown
8:55 AM 72.5 °F - 70.2 °F 92% 30.14 in - Calm Calm - N/A   Unknown
9:15 AM 73.4 °F - 70.7 °F 91% 30.14 in - Calm Calm - N/A   Mostly Cloudy
9:35 AM 75.2 °F - 70.7 °F 86% 30.14 in - NNE 4.6 mph - N/A   Unknown
9:55 AM 77.5 °F - 71.2 °F 81% 30.15 in - Calm Calm - N/A   Clear
10:15 AM 79.0 °F - 71.4 °F 78% 30.15 in 10.0 mi Calm Calm - N/A   Clear
10:35 AM 80.8 °F 84.9 °F 72.0 °F 74% 30.16 in 10.0 mi NNE 5.8 mph - N/A   Clear
10:55 AM 80.6 °F 84.6 °F 71.6 °F 74% 30.16 in 10.0 mi North 4.6 mph - N/A   Clear
11:15 AM 82.4 °F 87.4 °F 72.0 °F 71% 30.15 in 10.0 mi NNE 5.8 mph - N/A   Clear
11:35 AM 83.3 °F 88.4 °F 72.0 °F 68% 30.15 in 10.0 mi NNE 5.8 mph - N/A   Clear
11:55 AM 84.4 °F 89.7 °F 71.6 °F 65% 30.16 in 10.0 mi NNE 5.8 mph - N/A   Scattered Clouds
12:15 PM 86.2 °F 91.1 °F 70.3 °F 59% 30.15 in 10.0 mi North 6.9 mph - N/A   Scattered Clouds
12:35 PM 86.2 °F 90.7 °F 69.6 °F 58% 30.14 in 10.0 mi North 8.1 mph - N/A   Mostly Cloudy
12:55 PM 87.4 °F 92.3 °F 70.0 °F 56% 30.14 in 10.0 mi NNE 6.9 mph - N/A   Scattered Clouds
1:15 PM 88.0 °F 92.5 °F 69.4 °F 54% 30.14 in 10.0 mi NNE 8.1 mph - N/A   Clear
1:35 PM 88.3 °F 92.0 °F 68.0 °F 51% 30.12 in 10.0 mi North 8.1 mph - N/A   Clear
1:55 PM 88.0 °F 91.4 °F 67.8 °F 51% 30.12 in 10.0 mi North 8.1 mph - N/A   Scattered Clouds
2:15 PM 88.9 °F 91.4 °F 66.0 °F 47% 30.10 in 10.0 mi NNW 6.9 mph - N/A   Scattered Clouds
2:35 PM 88.9 °F 91.8 °F 66.9 °F 48% 30.10 in 10.0 mi North 5.8 mph - N/A   Scattered Clouds
2:55 PM 90.3 °F 92.6 °F 65.7 °F 44% 30.09 in 10.0 mi NNW 8.1 mph - N/A   Scattered Clouds
3:15 PM 90.3 °F 91.9 °F 64.2 °F 42% 30.08 in - West 3.5 mph - N/A   Scattered Clouds
3:35 PM 90.1 °F 91.6 °F 64.2 °F 42% 30.07 in - North 6.9 mph - N/A   Clear
3:55 PM 90.3 °F 92.2 °F 64.9 °F 43% 30.07 in - North 6.9 mph - N/A   Clear
4:15 PM 90.5 °F 92.2 °F 64.2 °F 42% 30.06 in - North 8.1 mph - N/A   Clear
4:35 PM 90.5 °F 91.4 °F 62.8 °F 40% 30.06 in - NNW 8.1 mph - N/A   Clear
4:55 PM 90.1 °F 90.6 °F 61.9 °F 39% 30.06 in - NNW 6.9 mph - N/A   Clear
5:15 PM 88.3 °F 88.6 °F 61.9 °F 41% 30.06 in - North 8.1 mph - N/A   Clear
5:35 PM 87.6 °F 87.4 °F 60.8 °F 40% 30.06 in - North 6.9 mph - N/A   Clear
5:55 PM 86.0 °F 86.1 °F 61.0 °F 43% 30.06 in - NNW 6.9 mph - N/A   Clear
6:15 PM 86.0 °F 85.4 °F 59.4 °F 40% 30.06 in - North 6.9 mph - N/A   Clear
6:35 PM 86.7 °F 86.5 °F 60.1 °F 41% 30.07 in - North 6.9 mph - N/A   Clear
6:55 PM 85.8 °F 85.9 °F 60.8 °F 43% 30.06 in - North 6.9 mph - N/A   Clear
7:15 PM 84.0 °F 84.2 °F 60.8 °F 45% 30.06 in - North 4.6 mph - N/A   Clear
7:35 PM 82.2 °F 82.9 °F 61.3 °F 49% 30.07 in - North 8.1 mph - N/A   Clear
7:55 PM 80.6 °F 81.5 °F 60.8 °F 51% 30.07 in - Calm Calm - N/A   Clear
8:15 PM 79.3 °F - 61.5 °F 54% 30.08 in - North 3.5 mph - N/A   Clear
8:35 PM 74.7 °F - 63.7 °F 69% 30.08 in - Calm Calm - N/A   Clear
8:55 PM 73.4 °F - 63.7 °F 71% 30.09 in 10.0 mi Calm Calm - N/A   Clear
9:15 PM 70.3 °F - 63.0 °F 77% 30.10 in 10.0 mi Calm Calm - N/A   Clear
9:35 PM 68.9 °F - 64.0 °F 84% 30.10 in 10.0 mi Calm Calm - N/A   Clear
9:55 PM 66.9 °F - 63.0 °F 87% 30.11 in 10.0 mi Calm Calm - N/A   Clear
10:15 PM 66.2 °F - 62.6 °F 88% 30.11 in 10.0 mi Calm Calm - N/A   Clear
10:35 PM 65.8 °F - 63.7 °F 93% 30.11 in 10.0 mi Calm Calm - N/A   Clear
10:55 PM 66.2 °F - 63.1 °F 90% 30.11 in 10.0 mi Calm Calm - N/A   Clear
11:15 PM 66.2 °F - 63.1 °F 90% 30.11 in 10.0 mi Calm Calm - N/A   Clear
11:35 PM 65.3 °F - 63.1 °F 93% 30.11 in 10.0 mi Calm Calm - N/A   Clear
11:55 PM 64.2 °F - 63.1 °F 96% 30.11 in 10.0 mi Calm Calm - N/A   Clear